Philadelphia, PA

10:50 AM EDT on September 25, 2016 (GMT -0400)
Philadelphia International

Weather History for KPHL - January, 2014

Change the Weather History Date:

Thursday, January 16, 2014

  Actual Average Record
Temperature  
Mean Temperature 33 °F 33 °F  
Max Temperature 39 °F 40 °F 62 °F (2007)
Min Temperature 27 °F 25 °F 0 °F (1977)
Degree Days  
Heating Degree Days 32 32  
Month to date heating degree days 527 510  
Since 1 July heating degree days 2140 2180  
Cooling Degree Days 0 0  
Month to date cooling degree days 0 0  
Year to date cooling degree days 0 0  
Moisture  
Dew Point 24 °F    
Average Humidity 62    
Maximum Humidity 79    
Minimum Humidity 44    
Precipitation  
Precipitation T in 0.10 in 1.09 in (1924)
Month to date precipitation 2.59 1.56  
Year to date precipitation 2.59 1.56  
Snow  
Snow T in 0.20 in 7.60 in (1945)
Month to date snowfall 9.0 2.9  
Since 1 July snowfall 20.2 6.6  
Snow Depth 0.00 in    
Sea Level Pressure  
Sea Level Pressure 29.95 in    
Wind  
Wind Speed 7 mph (WNW)    
Max Wind Speed 15 mph    
Max Gust Speed 21 mph    
Visibility 8 miles    
Events Rain , Snow    
T = Trace of Precipitation, MM = Missing Value Source: NWS Daily Summary

Daily Weather History Graph

Daily Weather History Graph

Search for Another Location

Airport or City:

Trip Planner

Search our weather history database for the weather conditions in past years. The results will help you decide how hot, cold, wet, or windy it might be!

Date:

Astronomy

Jan. 16, 2014 Rise Set
Actual Time 7:20 AM EST 5:01 PM EST
Civil Twilight 6:50 AM EST 5:31 PM EST
Nautical Twilight 6:17 AM EST 6:04 PM EST
Astronomical Twilight 5:44 AM EST 6:36 PM EST
Moon 5:51 PM EST (1/16) 7:12 AM EST (1/16)
Length of Visible Light 10h 40m
Length of Day
9h 41m
Full, 100% of the Moon is Illuminated
Jan 16
Full
Jan 24
Last Quarter
Jan 30
New
Feb 6
First Quarter
Feb 14
Full

Hourly Weather History & Observations

Time (EST) Temp. Windchill Dew Point Humidity Pressure Visibility Wind Dir Wind Speed Gust Speed Precip Events Conditions
12:54 AM 39.0 °F 34.0 °F 33.1 °F 79% 29.94 in 10.0 mi NW 6.9 mph - N/A   Overcast
1:00 AM 39.2 °F 35.0 °F 33.8 °F 81% 29.94 in 8.0 mi NNW 5.8 mph - 0.00 in Rain Light Rain
1:54 AM 37.9 °F 30.5 °F 30.0 °F 73% 29.94 in 8.0 mi NNW 11.5 mph - 0.00 in Rain , Snow Light Rain
2:54 AM 37.0 °F 31.0 °F 28.9 °F 73% 29.96 in 8.0 mi NW 8.1 mph - 0.00 in Snow Light Snow
3:27 AM 37.4 °F 31.4 °F 28.4 °F 70% 29.95 in 10.0 mi WNW 8.1 mph - 0.00 in   Overcast
3:54 AM 37.0 °F 30.4 °F 28.0 °F 70% 29.94 in 10.0 mi NW 9.2 mph - 0.00 in   Overcast
4:54 AM 35.1 °F 26.9 °F 27.0 °F 72% 29.94 in 10.0 mi NNW 11.5 mph - N/A   Overcast
5:33 AM 35.6 °F 28.6 °F 26.6 °F 70% 29.94 in 8.0 mi NNW 9.2 mph - 0.00 in Snow Light Snow
5:54 AM 35.1 °F 28.6 °F 27.0 °F 72% 29.92 in 8.0 mi NNW 8.1 mph - 0.00 in Snow Light Snow
6:29 AM 35.6 °F 31.7 °F 24.8 °F 65% 29.92 in 10.0 mi NW 4.6 mph - 0.00 in   Overcast
6:52 AM 35.6 °F 29.9 °F 24.8 °F 65% 29.93 in 10.0 mi NNW 6.9 mph - 0.00 in Snow Light Snow
6:54 AM 36.0 °F 30.3 °F 25.0 °F 64% 29.93 in 10.0 mi NNW 6.9 mph - 0.00 in Snow Light Snow
7:54 AM 36.0 °F 29.6 °F 24.1 °F 62% 29.96 in 10.0 mi WNW 8.1 mph - 0.00 in Snow Light Snow
8:18 AM 35.6 °F 28.0 °F 24.8 °F 65% 29.98 in 10.0 mi NW 10.4 mph - 0.00 in   Overcast
8:54 AM 35.1 °F 26.4 °F 24.1 °F 64% 29.98 in 10.0 mi WNW 12.7 mph - 0.00 in   Overcast
9:54 AM 35.6 °F 29.2 °F 24.8 °F 65% 29.98 in 10.0 mi NNW 8.1 mph - N/A   Overcast
10:27 AM 35.6 °F 28.6 °F 24.8 °F 65% 29.99 in 7.0 mi WNW 9.2 mph - 0.00 in Snow Light Snow
10:32 AM 35.6 °F 28.0 °F 24.8 °F 65% 29.99 in 5.0 mi West 10.4 mph - 0.00 in Snow Light Snow
10:35 AM 35.6 °F 29.2 °F 24.8 °F 65% 29.99 in 3.0 mi WNW 8.1 mph - 0.00 in Snow Light Snow
10:37 AM 35.6 °F 29.2 °F 24.8 °F 65% 29.99 in 2.0 mi WNW 8.1 mph - 0.00 in Snow Light Snow
10:40 AM 35.6 °F 28.0 °F 24.8 °F 65% 29.99 in 1.5 mi West 10.4 mph - 0.00 in Snow Light Snow
10:54 AM 34.0 °F 28.0 °F 26.1 °F 73% 29.98 in 1.2 mi NW 6.9 mph - 0.00 in Snow Light Snow
11:15 AM 33.8 °F 29.6 °F 26.6 °F 75% 29.96 in 2.0 mi WNW 4.6 mph - 0.00 in Snow Light Snow
11:19 AM 33.8 °F 29.6 °F 26.6 °F 75% 29.96 in 3.0 mi WNW 4.6 mph - 0.00 in Snow Light Snow
11:24 AM 33.8 °F 28.6 °F 26.6 °F 75% 29.95 in 5.0 mi NW 5.8 mph - 0.00 in Snow Light Snow
11:34 AM 35.6 °F 30.7 °F 26.6 °F 70% 29.95 in 7.0 mi NW 5.8 mph - 0.00 in   Overcast
11:54 AM 35.1 °F 31.0 °F 26.1 °F 70% 29.94 in 10.0 mi West 4.6 mph - 0.00 in   Overcast
12:54 PM 37.0 °F 29.8 °F 21.0 °F 52% 29.90 in 10.0 mi NW 10.4 mph - N/A   Mostly Cloudy
1:54 PM 37.9 °F 32.7 °F 19.9 °F 48% 29.88 in 10.0 mi WNW 6.9 mph 16.1 mph N/A   Mostly Cloudy
2:02 PM 37.4 °F 32.1 °F 19.4 °F 48% 29.88 in 10.0 mi Variable 6.9 mph - N/A   Mostly Cloudy
2:41 PM 37.4 °F 34.9 °F 19.4 °F 48% 29.89 in 10.0 mi Variable 3.5 mph - N/A   Mostly Cloudy
2:54 PM 39.0 °F 34.8 °F 19.9 °F 46% 29.89 in 10.0 mi NW 5.8 mph - N/A   Mostly Cloudy
3:54 PM 39.0 °F - 21.0 °F 49% 29.90 in 10.0 mi Calm Calm - N/A   Scattered Clouds
4:54 PM 37.9 °F 34.4 °F 21.0 °F 51% 29.92 in 10.0 mi South 4.6 mph - N/A   Scattered Clouds
5:54 PM 37.9 °F 32.7 °F 19.9 °F 48% 29.92 in 10.0 mi SW 6.9 mph - N/A   Partly Cloudy
6:54 PM 34.0 °F 27.2 °F 21.0 °F 59% 29.95 in 10.0 mi SW 8.1 mph - N/A   Clear
7:54 PM 33.1 °F 26.9 °F 18.0 °F 54% 29.97 in 10.0 mi WSW 6.9 mph - N/A   Clear
8:54 PM 30.9 °F 23.5 °F 19.0 °F 61% 29.99 in 10.0 mi West 8.1 mph - N/A   Clear
9:54 PM 30.9 °F 26.2 °F 19.9 °F 64% 29.99 in 10.0 mi WSW 4.6 mph - N/A   Clear
10:54 PM 28.9 °F - 19.9 °F 69% 29.99 in 10.0 mi Calm Calm - N/A   Clear
11:54 PM 30.0 °F - 19.9 °F 66% 29.99 in 10.0 mi Calm Calm - N/A   Clear